Date String (YYYY-MM-DD hh:mm:ss) UTC,Instrument flags,absolute air pressure of the measurement (hPa),sample flow rate (lpm),inlet stack bypass flow (lpm),air temperature of the measurement (°C),ambient temperature measured by the external sensor (°C),aerosol sample conditioner tube jacket temperature (°C),OPC LED temperature (°C),internal box temperature (°C),relative humidity of the measurement (%),span deviation,mass concentration of particles derived from Lorenz-Mie calculation of OPC scattering (μg/m³),mass concentration of particles derived from Lorenz-Mie calculation of OPC scattering (μg/m³),mass concentration of particles derived from Lorenz-Mie calculation of OPC scattering (μg/m³)
DateTimeUTC,F1_M11,P_M11,Q1_M11,Q2_M11,T1_M11,T2_M11,T3_M11,T4_M11,T5_M11,U1_M11,ZSPAN_M11,X2_M11,X0_M11,X1_M11
2024-02-05 03:00:00,SystemResetWarning,0831.3,5.01,000.00,020.7,020.1,000.0,029.2,022.4,19.5,0001.2,0005.99,0008.78,0005.70
2024-02-05 03:01:00,SystemResetWarning,0831.3,5.00,000.00,020.7,020.1,000.0,029.2,022.4,19.5,0000.8,0005.99,0008.96,0005.71
2024-02-05 03:02:00,SystemResetWarning,0831.3,5.00,000.00,020.7,020.0,000.0,029.2,022.4,19.5,0001.5,0005.99,0008.91,0005.73
2024-02-05 03:03:00,SystemResetWarning,0831.3,4.99,000.00,020.7,020.0,000.0,029.2,022.4,19.5,0001.9,0006.07,0009.03,0005.81
2024-02-05 03:04:00,SystemResetWarning,0831.3,4.99,000.00,020.7,020.0,000.0,029.1,022.4,19.5,0001.8,0006.15,0009.08,0005.90
2024-02-05 03:05:00,SystemResetWarning,0831.3,5.01,000.00,020.7,020.0,000.0,029.1,022.4,19.5,0001.7,0006.22,0009.11,0005.97
2024-02-05 03:06:00,SystemResetWarning,0831.3,5.01,000.00,020.6,020.0,000.0,029.1,022.4,19.5,0002.1,0006.19,0009.03,0005.97
2024-02-05 03:07:00,SystemResetWarning,0831.3,4.99,000.00,020.6,020.0,000.0,029.1,022.4,19.4,0002.2,0006.14,0008.94,0005.93
2024-02-05 03:08:00,SystemResetWarning,0831.3,4.99,000.00,020.6,020.0,000.0,029.1,022.4,19.3,0001.8,0006.14,0008.93,0005.92
2024-02-05 03:09:00,SystemResetWarning,0831.3,5.01,000.00,020.6,019.9,000.0,029.1,022.4,19.3,0001.7,0006.11,0008.90,0005.88
2024-02-05 03:10:00,SystemResetWarning,0831.4,5.01,000.00,020.6,019.9,000.0,029.1,022.3,19.3,0002.0,0006.08,0008.83,0005.87
2024-02-05 03:11:00,SystemResetWarning,0831.4,4.99,000.00,020.6,019.9,000.0,029.1,022.3,19.3,0002.1,0006.12,0008.91,0005.90
2024-02-05 03:12:00,SystemResetWarning,0831.4,4.99,000.00,020.6,019.9,000.0,029.1,022.3,19.3,0002.4,0006.14,0008.81,0005.89
2024-02-05 03:13:00,SystemResetWarning,0831.4,4.99,000.00,020.6,019.9,000.0,029.0,022.3,19.2,0002.2,0006.11,0008.71,0005.87
2024-02-05 03:14:00,SystemResetWarning,0831.4,5.01,000.00,020.5,019.9,000.0,029.0,022.3,19.2,0002.0,0006.03,0008.58,0005.79
2024-02-05 03:15:00,SystemResetWarning,0831.4,5.01,000.00,020.5,019.9,000.0,029.0,022.3,19.2,0002.1,0005.95,0008.53,0005.69
2024-02-05 03:16:00,SystemResetWarning,0831.4,5.00,000.00,020.5,019.9,000.0,029.0,022.3,19.2,0002.1,0005.83,0008.43,0005.56
2024-02-05 03:17:00,SystemResetWarning,0831.4,5.00,000.00,020.5,019.9,000.0,029.0,022.2,19.2,0001.9,0005.71,0008.35,0005.42
2024-02-05 03:18:00,SystemResetWarning,0831.4,5.00,000.00,020.5,019.9,000.0,029.0,022.2,19.2,0001.4,0005.58,0008.26,0005.28
2024-02-05 03:19:00,SystemResetWarning,0831.5,4.99,000.00,020.5,019.8,000.0,029.0,022.2,19.1,0002.0,0005.42,0008.08,0005.13
2024-02-05 03:20:00,SystemResetWarning,0831.5,4.99,000.00,020.5,019.8,000.0,028.9,022.2,19.1,0002.4,0005.28,0007.94,0004.99
2024-02-05 03:21:00,SystemResetWarning,0831.4,5.00,000.00,020.5,019.8,000.0,028.9,022.2,19.2,0002.5,0005.14,0007.78,0004.85
2024-02-05 03:22:00,SystemResetWarning,0831.4,5.01,000.00,020.5,019.8,000.0,028.9,022.2,19.2,0002.7,0005.04,0007.65,0004.75
2024-02-05 03:23:00,SystemResetWarning,0831.5,5.00,000.00,020.4,019.8,000.0,028.9,022.2,19.0,0002.3,0004.87,0007.43,0004.61
2024-02-05 03:24:00,SystemResetWarning,0831.5,4.99,000.00,020.4,019.8,000.0,028.9,022.1,19.0,0001.9,0004.73,0007.23,0004.48
2024-02-05 03:25:00,SystemResetWarning,0831.4,5.00,000.00,020.4,019.8,000.0,028.9,022.1,19.0,0000.0,0004.61,0006.96,0004.37
2024-02-05 03:26:00,SystemResetWarning,0831.5,5.00,000.00,020.4,019.7,000.0,028.9,022.1,19.0,0000.0,0004.47,0006.64,0004.25
2024-02-05 03:27:00,SystemResetWarning,0831.5,5.01,000.00,020.4,019.7,000.0,028.9,022.1,19.0,0000.0,0004.36,0006.33,0004.15
2024-02-05 03:28:00,SystemResetWarning,0831.5,5.01,000.00,020.4,019.7,000.0,028.8,022.1,19.0,0000.0,0004.28,0006.12,0004.08
2024-02-05 03:29:00,SystemResetWarning,0831.5,5.00,000.00,020.4,019.7,000.0,028.8,022.1,18.9,0000.0,0004.20,0005.90,0004.01
2024-02-05 03:30:00,SystemResetWarning,0831.5,4.99,000.00,020.3,019.7,000.0,028.8,022.1,19.0,0000.0,0004.13,0005.73,0003.96
2024-02-05 03:31:00,SystemResetWarning,0831.5,4.98,000.00,020.3,019.7,000.0,028.8,022.1,19.0,0000.0,0004.05,0005.51,0003.91
2024-02-05 03:32:00,SystemResetWarning,0831.5,5.01,000.00,020.3,019.6,000.0,028.8,022.0,19.0,0000.0,0004.01,0005.41,0003.88
2024-02-05 03:33:00,SystemResetWarning,0831.5,5.01,000.00,020.3,019.6,000.0,028.8,022.0,18.9,0000.0,0003.96,0005.27,0003.84
2024-02-05 03:34:00,SystemResetWarning,0831.5,4.99,000.00,020.3,019.6,000.0,028.8,022.0,18.9,0000.0,0003.96,0005.32,0003.84
2024-02-05 03:35:00,SystemResetWarning,0831.6,4.99,000.00,020.3,019.6,000.0,028.8,022.0,18.9,0000.0,0003.97,0005.39,0003.84
2024-02-05 03:36:00,SystemResetWarning,0831.6,5.01,000.00,020.3,019.6,000.0,028.8,022.0,18.9,0000.0,0003.99,0005.46,0003.85
2024-02-05 03:37:00,SystemResetWarning,0831.5,5.01,000.00,020.3,019.6,000.0,028.7,022.0,18.8,0000.0,0004.01,0005.53,0003.86
2024-02-05 03:38:00,SystemResetWarning,0831.6,5.00,000.00,020.2,019.6,000.0,028.7,021.9,18.7,0000.0,0004.02,0005.59,0003.87
2024-02-05 03:39:00,SystemResetWarning,0831.6,5.00,000.00,020.2,019.6,000.0,028.7,021.9,18.7,0000.0,0004.04,0005.64,0003.88
2024-02-05 03:40:00,SystemResetWarning,0831.6,4.99,000.00,020.2,019.5,000.0,028.7,021.9,18.6,0000.0,0004.07,0005.72,0003.91
2024-02-05 03:41:00,SystemResetWarning,0831.6,5.00,000.00,020.2,019.5,000.0,028.7,021.9,18.5,0000.0,0004.09,0005.77,0003.92
2024-02-05 03:42:00,SystemResetWarning,0831.6,4.99,000.00,020.2,019.5,000.0,028.7,021.9,18.4,0000.0,0004.11,0005.90,0003.94
2024-02-05 03:43:00,SystemResetWarning,0831.6,5.00,000.00,020.2,019.5,000.0,028.7,021.9,18.4,0000.0,0004.10,0006.38,0003.93
2024-02-05 03:44:00,SystemResetWarning,0831.6,5.01,000.00,020.2,019.5,000.0,028.6,021.8,18.5,0000.0,0004.09,0006.45,0003.91
2024-02-05 03:45:00,SystemResetWarning,0831.6,5.01,000.00,020.1,019.5,000.0,028.6,021.8,18.4,0000.0,0004.05,0006.33,0003.88
2024-02-05 03:46:00,SystemResetWarning,0831.6,5.00,000.00,020.1,019.4,000.0,028.6,021.8,18.5,0000.0,0004.04,0006.31,0003.86
2024-02-05 03:47:00,SystemResetWarning,0831.5,5.00,000.00,020.1,019.4,000.0,028.6,021.8,18.5,0000.0,0003.99,0006.20,0003.82
2024-02-05 03:48:00,SystemResetWarning,0831.6,5.00,000.00,020.1,019.4,000.0,028.6,021.8,18.5,0000.0,0003.94,0006.09,0003.77
2024-02-05 03:49:00,SystemResetWarning,0831.6,5.01,000.00,020.1,019.4,000.0,028.6,021.8,18.5,0000.0,0003.88,0006.03,0003.71
2024-02-05 03:50:00,SystemResetWarning,0831.6,5.00,000.00,020.1,019.4,000.0,028.5,021.8,18.5,0000.0,0003.83,0005.91,0003.66
2024-02-05 03:51:00,SystemResetWarning,0831.6,5.00,000.00,020.1,019.4,000.0,028.5,021.8,18.4,0000.0,0003.76,0005.74,0003.61
2024-02-05 03:52:00,SystemResetWarning,0831.6,5.00,000.00,020.0,019.4,000.0,028.5,021.7,18.4,0000.0,0003.72,0005.64,0003.57
2024-02-05 03:53:00,SystemResetWarning,0831.6,5.00,000.00,020.0,019.4,000.0,028.5,021.7,18.3,0000.0,0003.68,0005.60,0003.53
2024-02-05 03:54:00,SystemResetWarning,0831.6,5.00,000.00,020.0,019.3,000.0,028.5,021.7,18.2,0000.0,0003.64,0005.15,0003.49
2024-02-05 03:55:00,SystemResetWarning,0831.6,5.00,000.00,020.0,019.3,000.0,028.5,021.7,18.2,0000.0,0003.63,0005.02,0003.47
2024-02-05 03:56:00,SystemResetWarning,0831.6,5.00,000.00,020.0,019.3,000.0,028.5,021.7,18.2,0000.0,0003.62,0004.95,0003.45
2024-02-05 03:57:00,SystemResetWarning,0831.6,5.01,000.00,020.0,019.3,000.0,028.5,021.7,18.3,0000.0,0003.60,0005.04,0003.43
2024-02-05 03:58:00,SystemResetWarning,0831.6,5.02,000.00,020.0,019.3,000.0,028.4,021.7,18.3,0000.0,0003.57,0005.00,0003.41
2024-02-05 03:59:00,SystemResetWarning,0831.6,5.00,000.00,019.9,019.3,000.0,028.4,021.6,18.3,0000.0,0003.55,0004.92,0003.40
